| time (UTC) | temp F | wind direction | speed MPH | gust MPH | rain 1hr in | rain 24hr in | rain mn in | humidity % | barometer mb |
| 20260508153536 | 58 | 229 | 0.0 | 3.0 | 0.00 | 0.00 | 0.00 | 73 | 1017.6 |
| 20260508153033 | 57 | 66 | 1.0 | 4.0 | 0.00 | 0.00 | 0.00 | 72 | 1017.8 |
| 20260508152521 | 57 | 360 | 1.0 | 6.0 | 0.00 | 0.00 | 0.00 | 74 | 1017.8 |
| 20260508152035 | 57 | 331 | 1.0 | 6.0 | 0.00 | 0.00 | 0.00 | 72 | 1017.8 |
| 20260508151531 | 57 | 15 | 1.0 | 4.0 | 0.00 | 0.00 | 0.00 | 67 | 1017.8 |
| 20260508151023 | 56 | 209 | 0.0 | 3.0 | 0.00 | 0.00 | 0.00 | 74 | 1017.8 |
| 20260508150530 | 56 | 86 | 1.0 | 3.0 | 0.00 | 0.00 | 0.00 | 73 | 1017.8 |
| 20260508150032 | 56 | 5 | 0.0 | 3.0 | 0.00 | 0.00 | 0.00 | 71 | 1017.8 |
| 20260508145534 | 56 | 107 | 1.0 | 3.0 | 0.00 | 0.00 | 0.00 | 70 | 1017.8 |
| 20260508145123 | 55 | 172 | 1.0 | 7.0 | 0.00 | 0.00 | 0.00 | 73 | 1017.8 |
| 20260508144520 | 55 | 289 | 1.0 | 7.0 | 0.00 | 0.00 | 0.00 | 73 | 1017.7 |
| 20260508144032 | 55 | 315 | 0.0 | 4.0 | 0.00 | 0.00 | 0.00 | 75 | 1017.7 |
| 20260508143538 | 54 | 291 | 0.0 | 3.0 | 0.00 | 0.00 | 0.00 | 76 | 1017.7 |
| 20260508143033 | 53 | 355 | 1.0 | 3.0 | 0.00 | 0.00 | 0.00 | 78 | 1017.7 |
| 20260508142526 | 53 | 314 | 1.0 | 3.0 | 0.00 | 0.00 | 0.00 | 79 | 1017.7 |
| 20260508142031 | 53 | 267 | 1.0 | 3.0 | 0.00 | 0.00 | 0.00 | 80 | 1017.7 |
| 20260508141529 | 53 | 112 | 0.0 | 2.0 | 0.00 | 0.00 | 0.00 | 82 | 1017.6 |
| 20260508141024 | 53 | 60 | 0.0 | 2.0 | 0.00 | 0.00 | 0.00 | 82 | 1017.4 |
| 20260508140532 | 53 | 343 | 0.0 | 4.0 | 0.00 | 0.00 | 0.00 | 83 | 1017.6 |
| 20260508140034 | 53 | 244 | 0.0 | 2.0 | 0.00 | 0.00 | 0.00 | 83 | 1017.6 |
| 20260508135540 | 52 | 346 | 0.0 | 3.0 | 0.00 | 0.00 | 0.00 | 83 | 1017.6 |
| 20260508135028 | 52 | 339 | 1.0 | 3.0 | 0.00 | 0.00 | 0.00 | 85 | 1017.6 |
| 20260508134531 | 52 | 226 | 0.0 | 3.0 | 0.00 | 0.00 | 0.00 | 85 | 1017.6 |
| 20260508134035 | 52 | 355 | 0.0 | 2.0 | 0.00 | 0.00 | 0.00 | 86 | 1017.4 |
| 20260508133524 | 51 | 346 | 0.0 | 5.0 | 0.00 | 0.00 | 0.00 | 87 | 1017.6 |
| 20260508133021 | 51 | 250 | 0.0 | 5.0 | 0.00 | 0.00 | 0.00 | 87 | 1017.4 |
| 20260508132532 | 51 | 32 | 0.0 | 3.0 | 0.00 | 0.00 | 0.00 | 87 | 1017.4 |
| 20260508132038 | 51 | 221 | 0.0 | 3.0 | 0.00 | 0.00 | 0.00 | 88 | 1017.3 |
| 20260508131536 | 50 | 309 | 0.0 | 3.0 | 0.00 | 0.00 | 0.00 | 89 | 1017.2 |
| 20260508131024 | 50 | 350 | 1.0 | 3.0 | 0.00 | 0.00 | 0.00 | 89 | 1017.2 |
| 20260508130538 | 50 | 269 | 0.0 | 5.0 | 0.00 | 0.00 | 0.00 | 89 | 1017.2 |
| 20260508130029 | 50 | 22 | 1.0 | 5.0 | 0.00 | 0.00 | 0.00 | 90 | 1017.2 |
| 20260508125522 | 50 | 319 | 0.0 | 3.0 | 0.00 | 0.00 | 0.00 | 91 | 1017.0 |
| 20260508125031 | 50 | 37 | 0.0 | 4.0 | 0.00 | 0.00 | 0.00 | 90 | 1017.1 |
| 20260508124529 | 49 | 355 | 2.0 | 4.0 | 0.00 | 0.00 | 0.00 | 91 | 1017.1 |
| 20260508124037 | 49 | 9 | 1.0 | 7.0 | 0.00 | 0.00 | 0.00 | 93 | 1017.1 |
| 20260508123525 | 47 | 342 | 0.0 | 7.0 | 0.00 | 0.00 | 0.00 | 92 | 1017.1 |
| 20260508123022 | 47 | 202 | 4.0 | 7.0 | 0.00 | 0.00 | 0.00 | 91 | 1016.9 |
| 20260508122534 | 47 | 171 | 2.0 | 7.0 | 0.00 | 0.00 | 0.00 | 90 | 1017.0 |
| 20260508122023 | 48 | 233 | 2.0 | 7.0 | 0.00 | 0.00 | 0.00 | 91 | 1017.0 |
| 20260508121542 | 48 | 209 | 4.0 | 7.0 | 0.00 | 0.00 | 0.00 | 91 | 1016.9 |
| 20260508121027 | 47 | 225 | 1.0 | 5.0 | 0.00 | 0.00 | 0.00 | 89 | 1016.9 |
| 20260508120538 | 48 | 255 | 1.0 | 5.0 | 0.00 | 0.00 | 0.00 | 88 | 1017.0 |
| 20260508120033 | 50 | 31 | 0.0 | 3.0 | 0.00 | 0.00 | 0.00 | 90 | 1016.9 |
| 20260508115521 | 49 | 307 | 1.0 | 4.0 | 0.00 | 0.00 | 0.00 | 91 | 1016.8 |
| 20260508115035 | 49 | 25 | 1.0 | 4.0 | 0.00 | 0.00 | 0.00 | 92 | 1016.9 |
| 20260508114531 | 47 | 189 | 2.0 | 4.0 | 0.00 | 0.00 | 0.00 | 90 | 1016.9 |
| 20260508114026 | 48 | 223 | 0.0 | 4.0 | 0.00 | 0.00 | 0.00 | 90 | 1016.8 |
| 20260508113533 | 48 | 217 | 2.0 | 4.0 | 0.00 | 0.00 | 0.00 | 90 | 1016.9 |
| 20260508113026 | 48 | 213 | 1.0 | 4.0 | 0.00 | 0.00 | 0.00 | 88 | 1016.9 |
| 20260508112536 | 50 | 215 | 3.0 | 5.0 | 0.00 | 0.00 | 0.00 | 89 | 1016.9 |
| 20260508112023 | 50 | 9 | 1.0 | 3.0 | 0.00 | 0.00 | 0.00 | 90 | 1016.9 |
| 20260508111521 | 49 | 340 | 0.0 | 3.0 | 0.00 | 0.00 | 0.00 | 91 | 1016.8 |
| 20260508111028 | 48 | 238 | 0.0 | 4.0 | 0.00 | 0.00 | 0.00 | 90 | 1016.8 |
| 20260508110542 | 48 | 211 | 1.0 | 5.0 | 0.00 | 0.00 | 0.00 | 90 | 1016.8 |
| 20260508110033 | 47 | 238 | 3.0 | 7.0 | 0.00 | 0.00 | 0.00 | 89 | 1016.8 |
| 20260508105522 | 47 | 248 | 3.0 | 7.0 | 0.00 | 0.00 | 0.00 | 87 | 1016.7 |
| 20260508105033 | 49 | 246 | 3.0 | 5.0 | 0.00 | 0.00 | 0.00 | 87 | 1016.7 |
| 20260508104529 | 50 | 247 | 3.0 | 5.0 | 0.00 | 0.00 | 0.00 | 89 | 1016.6 |
| 20260508104023 | 50 | 181 | 1.0 | 6.0 | 0.00 | 0.00 | 0.00 | 90 | 1016.6 |
| 20260508103532 | 49 | 194 | 0.0 | 3.0 | 0.00 | 0.00 | 0.00 | 89 | 1016.6 |
| 20260508103036 | 48 | 222 | 1.0 | 3.0 | 0.00 | 0.00 | 0.00 | 89 | 1016.7 |
| 20260508102538 | 48 | 251 | 1.0 | 3.0 | 0.00 | 0.00 | 0.00 | 90 | 1016.7 |
| 20260508102028 | 47 | 225 | 0.0 | 6.0 | 0.00 | 0.00 | 0.00 | 89 | 1016.7 |
| 20260508101526 | 47 | 249 | 1.0 | 10.0 | 0.00 | 0.00 | 0.00 | 88 | 1016.7 |
| 20260508101037 | 47 | 255 | 5.0 | 9.0 | 0.00 | 0.00 | 0.00 | 89 | 1016.7 |
| 20260508100525 | 48 | 245 | 5.0 | 6.0 | 0.00 | 0.00 | 0.00 | 88 | 1016.6 |
| 20260508100024 | 48 | 236 | 2.0 | 5.0 | 0.00 | 0.00 | 0.00 | 88 | 1016.5 |
| 20260508095530 | 48 | 263 | 2.0 | 3.0 | 0.00 | 0.00 | 0.00 | 88 | 1016.4 |
| 20260508095020 | 48 | 276 | 0.0 | 5.0 | 0.00 | 0.00 | 0.00 | 88 | 1016.5 |
| 20260508094551 | 49 | 265 | 3.0 | 5.0 | 0.00 | 0.00 | 0.00 | 88 | 1016.6 |
| 20260508094027 | 49 | 222 | 2.0 | 4.0 | 0.00 | 0.00 | 0.00 | 87 | 1016.5 |
| 20260508093521 | 50 | 248 | 2.0 | 4.0 | 0.00 | 0.00 | 0.00 | 86 | 1016.6 |
| 20260508093035 | 51 | 250 | 2.0 | 4.0 | 0.00 | 0.00 | 0.00 | 86 | 1016.6 |
| 20260508092527 | 51 | 329 | 0.0 | 2.0 | 0.00 | 0.00 | 0.00 | 85 | 1016.5 |
| 20260508092034 | 50 | 55 | 0.0 | 3.0 | 0.00 | 0.00 | 0.00 | 87 | 1016.5 |
| 20260508091539 | 49 | 121 | 0.0 | 5.0 | 0.00 | 0.00 | 0.00 | 88 | 1016.5 |
| 20260508091021 | 49 | 232 | 3.0 | 5.0 | 0.00 | 0.00 | 0.00 | 88 | 1016.5 |
| 20260508090531 | 49 | 217 | 1.0 | 3.0 | 0.00 | 0.00 | 0.00 | 88 | 1016.6 |
| 20260508090026 | 49 | 245 | 1.0 | 3.0 | 0.00 | 0.00 | 0.00 | 88 | 1016.6 |
| 20260508085534 | 49 | 239 | 1.0 | 3.0 | 0.00 | 0.00 | 0.00 | 89 | 1016.6 |
| 20260508085024 | 50 | 221 | 1.0 | 3.0 | 0.00 | 0.00 | 0.00 | 88 | 1016.6 |
| 20260508084519 | 50 | 240 | 0.0 | 2.0 | 0.00 | 0.00 | 0.00 | 89 | 1016.6 |
| 20260508084027 | 50 | 248 | 0.0 | 2.0 | 0.00 | 0.00 | 0.00 | 88 | 1016.6 |
| 20260508083542 | 50 | 231 | 0.0 | 2.0 | 0.00 | 0.00 | 0.00 | 88 | 1016.5 |
| 20260508083032 | 50 | 238 | 0.0 | 3.0 | 0.00 | 0.00 | 0.00 | 87 | 1016.5 |
| 20260508082524 | 50 | 214 | 1.0 | 4.0 | 0.00 | 0.00 | 0.00 | 87 | 1016.4 |
| 20260508082034 | 50 | 270 | 0.0 | 5.0 | 0.00 | 0.00 | 0.00 | 86 | 1016.3 |
| 20260508081555 | 50 | 211 | 2.0 | 5.0 | 0.00 | 0.00 | 0.00 | 86 | 1016.3 |
| 20260508081019 | 51 | 218 | 2.0 | 5.0 | 0.00 | 0.00 | 0.00 | 86 | 1016.2 |
| 20260508080531 | 51 | 243 | 1.0 | 4.0 | 0.00 | 0.00 | 0.00 | 87 | 1016.3 |
| 20260508080026 | 51 | 211 | 2.0 | 4.0 | 0.00 | 0.00 | 0.00 | 87 | 1016.2 |
| 20260508075538 | 51 | 185 | 1.0 | 3.0 | 0.00 | 0.00 | 0.00 | 86 | 1016.2 |
| 20260508075026 | 52 | 192 | 1.0 | 4.0 | 0.00 | 0.00 | 0.00 | 85 | 1016.2 |
| 20260508074523 | 52 | 211 | 2.0 | 4.0 | 0.00 | 0.00 | 0.00 | 86 | 1016.2 |
| 20260508074034 | 52 | 209 | 1.0 | 4.0 | 0.00 | 0.00 | 0.00 | 85 | 1016.2 |
| 20260508073526 | 53 | 239 | 2.0 | 4.0 | 0.00 | 0.00 | 0.00 | 83 | 1016.1 |
| 20260508073019 | 54 | 213 | 2.0 | 4.0 | 0.00 | 0.00 | 0.00 | 82 | 1016.0 |
| 20260508072529 | 54 | 279 | 0.0 | 5.0 | 0.00 | 0.00 | 0.00 | 83 | 1016.1 |
| 20260508072018 | 53 | 29 | 2.0 | 5.0 | 0.00 | 0.00 | 0.00 | 84 | 1016.1 |
| 20260508071541 | 53 | 188 | 3.0 | 5.0 | 0.00 | 0.00 | 0.00 | 84 | 1016.0 |
| 20260508071028 | 53 | 239 | 0.0 | 3.0 | 0.00 | 0.00 | 0.00 | 83 | 1016.0 |
| 20260508070536 | 53 | 262 | 2.0 | 5.0 | 0.00 | 0.00 | 0.00 | 82 | 1016.0 |
| 20260508070031 | 53 | 198 | 0.0 | 5.0 | 0.00 | 0.00 | 0.00 | 83 | 1016.0 |
| 20260508065524 | 53 | 219 | 2.0 | 4.0 | 0.00 | 0.00 | 0.00 | 84 | 1015.9 |
| 20260508065031 | 53 | 242 | 1.0 | 4.0 | 0.00 | 0.00 | 0.00 | 83 | 1015.9 |
| 20260508064530 | 54 | 241 | 0.0 | 2.0 | 0.00 | 0.00 | 0.00 | 83 | 1015.9 |
| 20260508064038 | 55 | 248 | 0.0 | 0.0 | 0.00 | 0.00 | 0.00 | 81 | 1016.0 |
| 20260508063528 | 56 | 211 | 0.0 | 0.0 | 0.00 | 0.00 | 0.00 | 80 | 1016.1 |
| 20260508063032 | 56 | 193 | 0.0 | 2.0 | 0.00 | 0.00 | 0.00 | 78 | 1016.0 |
| 20260508062532 | 56 | 350 | 0.0 | 0.0 | 0.00 | 0.00 | 0.00 | 78 | 1016.1 |
| 20260508062020 | 56 | 22 | 0.0 | 0.0 | 0.00 | 0.00 | 0.00 | 79 | 1016.0 |
| 20260508061540 | 56 | 18 | 0.0 | 1.0 | 0.00 | 0.00 | 0.00 | 78 | 1016.0 |
| 20260508061027 | 57 | 113 | 0.0 | 1.0 | 0.00 | 0.00 | 0.00 | 76 | 1016.0 |
| 20260508060534 | 57 | 62 | 0.0 | 3.0 | 0.00 | 0.00 | 0.00 | 78 | 1015.9 |
| 20260508060035 | 56 | 55 | 1.0 | 4.0 | 0.00 | 0.00 | 0.00 | 79 | 1015.8 |
| 20260508055525 | 57 | 215 | 2.0 | 4.0 | 0.00 | 0.00 | 0.00 | 78 | 1015.9 |
| 20260508055037 | 58 | 360 | 0.0 | 2.0 | 0.00 | 0.00 | 0.00 | 75 | 1015.8 |
| 20260508054531 | 58 | 311 | 0.0 | 2.0 | 0.00 | 0.00 | 0.00 | 74 | 1015.8 |
| 20260508054040 | 58 | 19 | 0.0 | 2.0 | 0.00 | 0.00 | 0.00 | 75 | 1015.8 |
| 20260508053527 | 57 | 105 | 0.0 | 2.0 | 0.00 | 0.00 | 0.00 | 77 | 1015.7 |
| 20260508053026 | 57 | 151 | 0.0 | 2.0 | 0.00 | 0.00 | 0.00 | 78 | 1015.8 |
| 20260508052534 | 57 | 184 | 0.0 | 2.0 | 0.00 | 0.00 | 0.00 | 79 | 1015.7 |
| 20260508052023 | 57 | 232 | 0.0 | 3.0 | 0.00 | 0.00 | 0.00 | 78 | 1015.9 |
| 20260508051519 | 57 | 199 | 2.0 | 4.0 | 0.00 | 0.00 | 0.00 | 77 | 1015.8 |
| 20260508051031 | 58 | 202 | 2.0 | 4.0 | 0.00 | 0.00 | 0.00 | 77 | 1015.8 |
| 20260508050538 | 59 | 237 | 1.0 | 3.0 | 0.00 | 0.00 | 0.00 | 75 | 1015.9 |
| 20260508050032 | 59 | 194 | 0.0 | 2.0 | 0.00 | 0.00 | 0.00 | 74 | 1015.7 |
| 20260508045525 | 60 | 48 | 0.0 | 0.0 | 0.00 | 0.00 | 0.00 | 69 | 1015.8 |
| 20260508045037 | 60 | 330 | 0.0 | 0.0 | 0.00 | 0.00 | 0.00 | 69 | 1015.6 |
| 20260508044533 | 60 | 338 | 0.0 | 1.0 | 0.00 | 0.00 | 0.00 | 70 | 1015.6 |
| 20260508044023 | 60 | 236 | 0.0 | 3.0 | 0.00 | 0.00 | 0.00 | 72 | 1015.7 |
| 20260508043535 | 60 | 192 | 0.0 | 3.0 | 0.00 | 0.00 | 0.00 | 71 | 1015.6 |
| 20260508043029 | 62 | 162 | 0.0 | 2.0 | 0.00 | 0.00 | 0.00 | 65 | 1015.6 |
| 20260508042539 | 62 | 105 | 0.0 | 0.0 | 0.00 | 0.00 | 0.00 | 60 | 1015.7 |
| 20260508042027 | 62 | 200 | 0.0 | 2.0 | 0.00 | 0.00 | 0.00 | 61 | 1015.6 |
| 20260508041529 | 62 | 192 | 0.0 | 3.0 | 0.00 | 0.00 | 0.00 | 60 | 1015.7 |
| 20260508041033 | 62 | 350 | 0.0 | 3.0 | 0.00 | 0.00 | 0.00 | 61 | 1015.7 |
| 20260508040523 | 61 | 101 | 0.0 | 4.0 | 0.00 | 0.00 | 0.00 | 65 | 1015.7 |
| 20260508040019 | 61 | 300 | 0.0 | 3.0 | 0.00 | 0.00 | 0.00 | 67 | 1015.7 |
| 20260508035529 | 61 | 144 | 0.0 | 3.0 | 0.00 | 0.00 | 0.00 | 68 | 1015.7 |
| 20260508035018 | 61 | 324 | 1.0 | 2.0 | 0.00 | 0.00 | 0.00 | 68 | 1015.6 |
| 20260508034535 | 63 | 123 | 0.0 | 2.0 | 0.00 | 0.00 | 0.00 | 64 | 1015.4 |
| 20260508034030 | 64 | 227 | 0.0 | 0.0 | 0.00 | 0.00 | 0.00 | 56 | 1015.4 |
| 20260508033539 | 64 | 209 | 0.0 | 0.0 | 0.00 | 0.00 | 0.00 | 57 | 1015.3 |
| 20260508033035 | 64 | 209 | 0.0 | 0.0 | 0.00 | 0.00 | 0.00 | 58 | 1015.2 |
| 20260508032523 | 64 | 205 | 0.0 | 0.0 | 0.00 | 0.00 | 0.00 | 60 | 1015.2 |
| 20260508032035 | 64 | 204 | 0.0 | 0.0 | 0.00 | 0.00 | 0.00 | 59 | 1015.2 |
| 20260508031531 | 64 | 212 | 0.0 | 3.0 | 0.00 | 0.00 | 0.00 | 61 | 1015.2 |
| 20260508031018 | 66 | 212 | 0.0 | 3.0 | 0.00 | 0.00 | 0.00 | 53 | 1015.2 |
| 20260508030528 | 66 | 205 | 1.0 | 3.0 | 0.00 | 0.00 | 0.00 | 53 | 1015.1 |
| 20260508030025 | 66 | 248 | 0.0 | 3.0 | 0.00 | 0.00 | 0.00 | 53 | 1015.0 |
| 20260508025532 | 66 | 256 | 1.0 | 4.0 | 0.00 | 0.00 | 0.00 | 52 | 1014.9 |
| 20260508025022 | 66 | 253 | 1.0 | 7.0 | 0.00 | 0.00 | 0.00 | 55 | 1014.9 |
| 20260508024531 | 67 | 194 | 4.0 | 8.0 | 0.00 | 0.00 | 0.00 | 52 | 1014.8 |
| 20260508024027 | 67 | 191 | 5.0 | 8.0 | 0.00 | 0.00 | 0.00 | 51 | 1014.8 |
| 20260508023521 | 67 | 209 | 4.0 | 6.0 | 0.00 | 0.00 | 0.00 | 51 | 1014.7 |
| 20260508023033 | 67 | 205 | 3.0 | 6.0 | 0.00 | 0.00 | 0.00 | 52 | 1014.7 |
| 20260508022526 | 68 | 207 | 3.0 | 7.0 | 0.00 | 0.00 | 0.00 | 51 | 1014.7 |
| 20260508022036 | 68 | 211 | 4.0 | 8.0 | 0.00 | 0.00 | 0.00 | 48 | 1014.6 |
| 20260508021531 | 68 | 183 | 6.0 | 8.0 | 0.00 | 0.00 | 0.00 | 49 | 1014.6 |
| 20260508021022 | 68 | 198 | 6.0 | 9.0 | 0.00 | 0.00 | 0.00 | 49 | 1014.7 |
| 20260508020534 | 68 | 200 | 6.0 | 9.0 | 0.00 | 0.00 | 0.00 | 48 | 1014.7 |
| 20260508020029 | 68 | 181 | 6.0 | 10.0 | 0.00 | 0.00 | 0.00 | 50 | 1014.7 |
| 20260508015537 | 68 | 182 | 6.0 | 9.0 | 0.00 | 0.00 | 0.00 | 48 | 1014.7 |
| 20260508015026 | 68 | 181 | 4.0 | 6.0 | 0.00 | 0.00 | 0.00 | 49 | 1014.8 |
| 20260508014528 | 68 | 216 | 3.0 | 6.0 | 0.00 | 0.00 | 0.00 | 49 | 1014.8 |
| 20260508014035 | 69 | 211 | 2.0 | 6.0 | 0.00 | 0.00 | 0.00 | 49 | 1014.8 |
| 20260508013522 | 69 | 211 | 2.0 | 5.0 | 0.00 | 0.00 | 0.00 | 49 | 1014.8 |
| 20260508013042 | 70 | 218 | 1.0 | 5.0 | 0.00 | 0.00 | 0.00 | 49 | 1014.9 |
| 20260508012528 | 69 | 175 | 0.0 | 2.0 | 0.00 | 0.00 | 0.00 | 49 | 1014.9 |
| 20260508012022 | 69 | 197 | 0.0 | 2.0 | 0.00 | 0.00 | 0.00 | 51 | 1014.8 |
| 20260508011538 | 69 | 179 | 0.0 | 3.0 | 0.00 | 0.00 | 0.00 | 51 | 1015.1 |
| 20260508011028 | 69 | 192 | 1.0 | 3.0 | 0.00 | 0.00 | 0.00 | 50 | 1015.1 |
| 20260508010536 | 69 | 171 | 0.0 | 1.0 | 0.00 | 0.00 | 0.00 | 51 | 1015.0 |
| 20260508010035 | 70 | 173 | 0.0 | 1.0 | 0.00 | 0.00 | 0.00 | 49 | 1015.1 |
| 20260508005523 | 69 | 201 | 0.0 | 2.0 | 0.00 | 0.00 | 0.00 | 49 | 1015.2 |
| 20260508005032 | 69 | 190 | 0.0 | 3.0 | 0.00 | 0.00 | 0.00 | 51 | 1015.1 |
| 20260508004527 | 70 | 231 | 0.0 | 5.0 | 0.00 | 0.00 | 0.00 | 49 | 1015.1 |
| 20260508004035 | 70 | 132 | 1.0 | 4.0 | 0.00 | 0.00 | 0.00 | 48 | 1015.2 |
| 20260508003528 | 69 | 187 | 0.0 | 3.0 | 0.00 | 0.00 | 0.00 | 49 | 1015.4 |
| 20260508003023 | 69 | 140 | 0.0 | 1.0 | 0.00 | 0.00 | 0.00 | 50 | 1015.4 |
| 20260508002532 | 69 | 273 | 0.0 | 2.0 | 0.00 | 0.00 | 0.00 | 52 | 1015.5 |
| 20260508002019 | 68 | 218 | 0.0 | 2.0 | 0.00 | 0.00 | 0.00 | 52 | 1015.4 |
| 20260508001536 | 68 | 159 | 0.0 | 4.0 | 0.00 | 0.00 | 0.00 | 54 | 1015.5 |
| 20260508001032 | 68 | 200 | 1.0 | 4.0 | 0.00 | 0.00 | 0.00 | 51 | 1015.4 |
| 20260508000541 | 68 | 48 | 1.0 | 3.0 | 0.00 | 0.00 | 0.00 | 52 | 1015.4 |
| 20260508000034 | 68 | 17 | 0.0 | 4.0 | 0.00 | 0.00 | 0.00 | 51 | 1015.4 |
| 20260507235522 | 67 | 57 | 1.0 | 4.0 | 0.00 | 0.00 | 0.00 | 53 | 1015.3 |
| 20260507235035 | 67 | 34 | 1.0 | 4.0 | 0.00 | 0.00 | 0.00 | 54 | 1015.3 |
| 20260507234530 | 68 | 123 | 0.0 | 4.0 | 0.00 | 0.00 | 0.00 | 53 | 1015.5 |
| 20260507234038 | 68 | 235 | 1.0 | 4.0 | 0.00 | 0.00 | 0.00 | 54 | 1015.5 |
| 20260507233527 | 68 | 5 | 1.0 | 4.0 | 0.00 | 0.00 | 0.00 | 52 | 1015.5 |
| 20260507233036 | 68 | 26 | 1.0 | 6.0 | 0.00 | 0.00 | 0.00 | 51 | 1015.6 |
| 20260507232532 | 69 | 86 | 1.0 | 6.0 | 0.00 | 0.00 | 0.00 | 51 | 1015.6 |
| 20260507232021 | 69 | 252 | 1.0 | 4.0 | 0.00 | 0.00 | 0.00 | 51 | 1015.6 |
| 20260507231539 | 70 | 137 | 2.0 | 4.0 | 0.00 | 0.00 | 0.00 | 47 | 1015.7 |
| 20260507231029 | 70 | 191 | 0.0 | 3.0 | 0.00 | 0.00 | 0.00 | 49 | 1015.7 |
| 20260507230536 | 70 | 347 | 0.0 | 9.0 | 0.00 | 0.00 | 0.00 | 50 | 1015.6 |
| 20260507230031 | 70 | 87 | 1.0 | 9.0 | 0.00 | 0.00 | 0.00 | 47 | 1015.6 |
| 20260507225524 | 70 | 48 | 3.0 | 5.0 | 0.00 | 0.00 | 0.00 | 46 | 1015.8 |
| 20260507225032 | 69 | 80 | 1.0 | 5.0 | 0.00 | 0.00 | 0.00 | 51 | 1015.8 |
| 20260507224539 | 68 | 211 | 1.0 | 4.0 | 0.00 | 0.00 | 0.00 | 53 | 1015.8 |
| 20260507224018 | 67 | 325 | 0.0 | 5.0 | 0.00 | 0.00 | 0.00 | 55 | 1015.9 |
| 20260507223528 | 66 | 261 | 1.0 | 7.0 | 0.00 | 0.00 | 0.00 | 53 | 1015.8 |
| 20260507223023 | 67 | 160 | 2.0 | 7.0 | 0.00 | 0.00 | 0.00 | 52 | 1016.0 |
| 20260507222536 | 66 | 191 | 1.0 | 3.0 | 0.00 | 0.00 | 0.00 | 56 | 1016.0 |
| 20260507222022 | 67 | 263 | 1.0 | 5.0 | 0.00 | 0.00 | 0.00 | 54 | 1016.1 |
| 20260507221523 | 67 | 103 | 1.0 | 5.0 | 0.00 | 0.00 | 0.00 | 54 | 1016.1 |
| 20260507221030 | 66 | 240 | 1.0 | 5.0 | 0.00 | 0.00 | 0.00 | 56 | 1016.1 |
| 20260507220540 | 66 | 27 | 1.0 | 4.0 | 0.00 | 0.00 | 0.00 | 55 | 1016.1 |
| 20260507220033 | 66 | 346 | 1.0 | 6.0 | 0.00 | 0.00 | 0.00 | 56 | 1016.1 |
| 20260507215523 | 66 | 165 | 1.0 | 6.0 | 0.00 | 0.00 | 0.00 | 55 | 1016.1 |
| 20260507215034 | 67 | 75 | 2.0 | 7.0 | 0.00 | 0.00 | 0.00 | 54 | 1016.2 |
| 20260507214536 | 66 | 217 | 2.0 | 6.0 | 0.00 | 0.00 | 0.00 | 56 | 1016.2 |
| 20260507214023 | 67 | 360 | 2.0 | 5.0 | 0.00 | 0.00 | 0.00 | 53 | 1016.2 |
| 20260507213533 | 68 | 44 | 2.0 | 5.0 | 0.00 | 0.00 | 0.00 | 54 | 1016.3 |
| 20260507213029 | 68 | 258 | 2.0 | 5.0 | 0.00 | 0.00 | 0.00 | 53 | 1016.4 |
| 20260507212541 | 68 | 99 | 2.0 | 9.0 | 0.00 | 0.00 | 0.00 | 53 | 1016.4 |
| 20260507212026 | 67 | 69 | 2.0 | 9.0 | 0.00 | 0.00 | 0.00 | 54 | 1016.5 |
| 20260507211524 | 68 | 301 | 2.0 | 4.0 | 0.00 | 0.00 | 0.00 | 54 | 1016.5 |
| 20260507211033 | 68 | 15 | 1.0 | 8.0 | 0.00 | 0.00 | 0.00 | 53 | 1016.4 |
| 20260507210520 | 68 | 270 | 2.0 | 8.0 | 0.00 | 0.00 | 0.00 | 50 | 1016.6 |
| 20260507210019 | 68 | 114 | 2.0 | 8.0 | 0.00 | 0.00 | 0.00 | 53 | 1016.5 |
| 20260507205527 | 67 | 189 | 2.0 | 12.0 | 0.00 | 0.00 | 0.00 | 53 | 1016.6 |
| 20260507205018 | 67 | 360 | 2.0 | 12.0 | 0.00 | 0.00 | 0.00 | 54 | 1016.6 |
| 20260507204534 | 67 | 188 | 3.0 | 8.0 | 0.00 | 0.00 | 0.00 | 55 | 1016.7 |
| 20260507204029 | 66 | 320 | 2.0 | 9.0 | 0.00 | 0.00 | 0.00 | 57 | 1016.6 |
| 20260507203534 | 65 | 18 | 3.0 | 9.0 | 0.00 | 0.00 | 0.00 | 59 | 1016.5 |
| 20260507203039 | 65 | 248 | 2.0 | 8.0 | 0.00 | 0.00 | 0.00 | 56 | 1016.7 |
| 20260507202519 | 66 | 5 | 2.0 | 5.0 | 0.00 | 0.00 | 0.00 | 56 | 1016.7 |
| 20260507202030 | 66 | 346 | 2.0 | 7.0 | 0.00 | 0.00 | 0.00 | 56 | 1016.8 |
| 20260507201529 | 65 | 188 | 2.0 | 8.0 | 0.00 | 0.00 | 0.00 | 57 | 1016.8 |
| 20260507201035 | 65 | 250 | 2.0 | 8.0 | 0.00 | 0.00 | 0.00 | 56 | 1016.7 |
| 20260507200525 | 65 | 24 | 2.0 | 6.0 | 0.00 | 0.00 | 0.00 | 56 | 1016.7 |
| 20260507200021 | 65 | 44 | 2.0 | 7.0 | 0.00 | 0.00 | 0.00 | 56 | 1016.8 |
| 20260507195532 | 65 | 5 | 2.0 | 6.0 | 0.00 | 0.00 | 0.00 | 56 | 1016.6 |
| 20260507195021 | 65 | 133 | 2.0 | 7.0 | 0.00 | 0.00 | 0.00 | 55 | 1016.8 |
| 20260507194521 | 65 | 314 | 2.0 | 6.0 | 0.00 | 0.00 | 0.00 | 58 | 1016.8 |
| 20260507194029 | 65 | 163 | 2.0 | 6.0 | 0.00 | 0.00 | 0.00 | 56 | 1016.7 |
| 20260507193521 | 64 | 205 | 2.0 | 6.0 | 0.00 | 0.00 | 0.00 | 57 | 1016.7 |
| 20260507193019 | 64 | 103 | 2.0 | 6.0 | 0.00 | 0.00 | 0.00 | 56 | 1016.8 |
| 20260507192529 | 65 | 63 | 2.0 | 9.0 | 0.00 | 0.00 | 0.00 | 54 | 1016.7 |
| 20260507192039 | 65 | 73 | 3.0 | 9.0 | 0.00 | 0.00 | 0.00 | 55 | 1016.6 |
| 20260507191535 | 65 | 355 | 1.0 | 12.0 | 0.00 | 0.00 | 0.00 | 54 | 1016.7 |
| 20260507191027 | 64 | 53 | 2.0 | 12.0 | 0.00 | 0.00 | 0.00 | 54 | 1016.7 |
| 20260507190538 | 64 | 166 | 5.0 | 12.0 | 0.00 | 0.00 | 0.00 | 53 | 1016.8 |
| 20260507190030 | 64 | 210 | 6.0 | 10.0 | 0.00 | 0.00 | 0.00 | 56 | 1016.9 |
| 20260507185541 | 64 | 203 | 2.0 | 5.0 | 0.00 | 0.00 | 0.00 | 55 | 1017.0 |
| 20260507185025 | 63 | 215 | 2.0 | 8.0 | 0.00 | 0.00 | 0.00 | 57 | 1017.0 |
| 20260507184526 | 63 | 18 | 2.0 | 8.0 | 0.00 | 0.00 | 0.00 | 56 | 1017.1 |
| 20260507184037 | 63 | 31 | 2.0 | 8.0 | 0.00 | 0.00 | 0.00 | 59 | 1017.1 |
| 20260507183524 | 63 | 186 | 2.0 | 6.0 | 0.00 | 0.00 | 0.00 | 56 | 1017.1 |
| 20260507183022 | 63 | 86 | 2.0 | 5.0 | 0.00 | 0.00 | 0.00 | 60 | 1017.2 |
| 20260507182530 | 62 | 28 | 2.0 | 4.0 | 0.00 | 0.00 | 0.00 | 57 | 1017.2 |
| 20260507182023 | 62 | 355 | 2.0 | 5.0 | 0.00 | 0.00 | 0.00 | 58 | 1017.2 |
| 20260507181524 | 62 | 340 | 2.0 | 7.0 | 0.00 | 0.00 | 0.00 | 60 | 1017.3 |
| 20260507181028 | 62 | 122 | 2.0 | 7.0 | 0.00 | 0.00 | 0.00 | 59 | 1017.3 |
| 20260507180542 | 62 | 202 | 2.0 | 9.0 | 0.00 | 0.00 | 0.00 | 62 | 1017.4 |
| 20260507180038 | 62 | 329 | 2.0 | 9.0 | 0.00 | 0.00 | 0.00 | 60 | 1017.5 |
| 20260507175520 | 62 | 34 | 2.0 | 7.0 | 0.00 | 0.00 | 0.00 | 60 | 1017.4 |
| 20260507175031 | 61 | 63 | 2.0 | 7.0 | 0.00 | 0.00 | 0.00 | 62 | 1017.5 |
| 20260507174528 | 61 | 347 | 2.0 | 5.0 | 0.00 | 0.00 | 0.00 | 60 | 1017.5 |
| 20260507174036 | 61 | 332 | 2.0 | 5.0 | 0.00 | 0.00 | 0.00 | 62 | 1017.4 |
| 20260507173527 | 61 | 292 | 2.0 | 6.0 | 0.00 | 0.00 | 0.00 | 61 | 1017.5 |
| 20260507173030 | 61 | 13 | 2.0 | 8.0 | 0.00 | 0.00 | 0.00 | 63 | 1017.4 |
| 20260507172531 | 61 | 29 | 2.0 | 8.0 | 0.00 | 0.00 | 0.00 | 62 | 1017.5 |
| 20260507172020 | 60 | 331 | 2.0 | 8.0 | 0.00 | 0.00 | 0.00 | 62 | 1017.5 |
| 20260507171538 | 60 | 16 | 2.0 | 6.0 | 0.00 | 0.00 | 0.00 | 63 | 1017.5 |
| 20260507171033 | 60 | 90 | 2.0 | 7.0 | 0.00 | 0.00 | 0.00 | 62 | 1017.4 |
| 20260507170520 | 61 | 25 | 2.0 | 7.0 | 0.00 | 0.00 | 0.00 | 61 | 1017.4 |
| 20260507170039 | 60 | 270 | 2.0 | 6.0 | 0.00 | 0.00 | 0.00 | 61 | 1017.5 |
| 20260507165527 | 60 | 60 | 2.0 | 6.0 | 0.00 | 0.00 | 0.00 | 61 | 1017.5 |
| 20260507165038 | 60 | 225 | 2.0 | 6.0 | 0.00 | 0.00 | 0.00 | 62 | 1017.4 |
| 20260507164536 | 60 | 43 | 2.0 | 7.0 | 0.00 | 0.00 | 0.00 | 64 | 1017.4 |
| 20260507164022 | 59 | 305 | 2.0 | 7.0 | 0.00 | 0.00 | 0.00 | 64 | 1017.3 |
| 20260507163531 | 59 | 40 | 2.0 | 8.0 | 0.00 | 0.00 | 0.00 | 64 | 1017.2 |
| 20260507163029 | 59 | 336 | 2.0 | 8.0 | 0.00 | 0.00 | 0.00 | 64 | 1017.3 |
| 20260507162536 | 58 | 102 | 1.0 | 8.0 | 0.00 | 0.00 | 0.00 | 64 | 1017.3 |
| 20260507162026 | 58 | 14 | 2.0 | 8.0 | 0.00 | 0.00 | 0.00 | 65 | 1017.3 |
| 20260507161525 | 58 | 59 | 2.0 | 5.0 | 0.00 | 0.00 | 0.00 | 65 | 1017.4 |
| 20260507161032 | 58 | 94 | 2.0 | 6.0 | 0.00 | 0.00 | 0.00 | 67 | 1017.4 |
| 20260507160528 | 57 | 146 | 2.0 | 6.0 | 0.00 | 0.00 | 0.00 | 66 | 1017.5 |
| 20260507160023 | 57 | 355 | 2.0 | 6.0 | 0.00 | 0.00 | 0.00 | 68 | 1017.5 |
| 20260507155533 | 57 | 28 | 2.0 | 6.0 | 0.00 | 0.00 | 0.00 | 68 | 1017.4 |
| 20260507155022 | 57 | 178 | 2.0 | 7.0 | 0.00 | 0.00 | 0.00 | 66 | 1017.6 |
| 20260507154547 | 57 | 355 | 2.0 | 7.0 | 0.00 | 0.00 | 0.00 | 67 | 1017.5 |
| 20260507154026 | 57 | 55 | 1.0 | 4.0 | 0.00 | 0.00 | 0.00 | 66 | 1017.8 |